STARLINK-32033 (60144 NORAD) Tracking and Keplerian Element Data

This shows tracking and keplerian element data for the satellite.

Feedback or suggestion? Click here.




ElementValue
Catalog60144
NameSTARLINK-32033
Epoch Orbit1777
Epoch Day286.73160333
Epoch Year2024
RAAN187.2788
Inclination53.159
Eccentricity1.14E-05
Argument of Perigee115.292
Mean Anonmoly244.8097
Mean Motion15.39653068
Decay Rate0.0007172
L11 60144U 24120K 24286.73160333 .00071720 00000+0 17842-2 0 9992
L22 60144 53.1590 187.2788 0000114 115.2920 244.8097 15.39653068 17779



Live tracking and technical data element details for STARLINK-32033 (NORAD 60144). STARLINK-32033 can be tracked NOW for your location showing map with azimuth and elevation plus other details from your city location.







IsCatalogInMostPopularTable: catalog: 60144, numindb: 9
Update: records affected: 1



GetName: 60144 STARLINK-32033

Hit Count: updated at: Thu, 23 Jan 2025 13:51:40 GMT